Content
SEND FEEDBACK

Daily
Averages
Monthly
Summary
United States of America

LOWELL, MICHIGAN


Home > North America > United States > Michigan
Elevation: 660 feet     Latitude: 42 58N     Longitude: 085 21W

WEATHER
 
SELECT A DAY
Number of Records: 209,410;   Date Range: 1/1/95 - 9/21/14
 
SHARE

PRINT THIS DATA

[ ← Previous Day ]
WEATHER ALMANAC - FEBRUARY 13, 2013
[ Next Day → ]
[ °C ]   °F
Weather ElementAverageHighLow
Temperature29.7 °F37.9 °F (3:53 pm)21.9 °F (5:53 am)
Dewpoint23.4 °F27 °F (4:53 pm)19 °F (4:53 am)
Humidity77.8 %89 % (5:53 am)62 % (3:53 pm)
Barometer29.81 in29.92 in (1:53 am)29.74 in (2:53 pm)
Wind Speed8 mph11.5 mph (9:53 am)
Weather ElementAverage
Visibility7.6 mi
Wind DirectionSSW (198.3 °)

Weather ElementTotal
Precipitation---
Heating Degree Days35.1 (Base 65)
Averaged from 29 records on February 13, 2013
WEATHER CONDITIONS BREAKOUT
WIND DIRECTION BREAKOUT
WEATHER BY HOUR - FEBRUARY 13, 2013
[ °C ]   °F
Local TimeTemperatureDewpointHumidityBarometerVisibilityWind DirectionWind SpeedGust SpeedPrecipitationEventsConditions
1:53 AM28.9 °F23.0 °F78 %29.92 in10.0 miSW (230°)5.8 mphOvercast
2:53 AM28.9 °F23.0 °F78 %29.91 in10.0 miSW (230°)8.1 mphOvercast
3:53 AM28.9 °F21.9 °F75 %29.89 in10.0 miSSW (210°)5.8 mphOvercast
4:27 AM26.6 °F21.2 °F80 %29.85 in10.0 miSouth (170°)4.6 mphScattered Clouds
4:53 AM23.0 °F19.0 °F85 %29.88 in9.0 miSouth (180°)6.9 mphClear
5:53 AM21.9 °F19.0 °F89 %29.86 in8.0 miSouth (180°)8.1 mphPartly Cloudy
6:23 AM24.8 °F19.4 °F80 %29.82 in8.0 miSouth (190°)9.2 mphMostly Cloudy
6:53 AM25.0 °F21.9 °F88 %29.85 in8.0 miSouth (180°)8.1 mphOvercast
7:02 AM26.6 °F21.2 °F80 %29.82 in8.0 miSouth (190°)8.1 mphOvercast
7:53 AM26.1 °F21.9 °F84 %29.83 in7.0 miSouth (180°)9.2 mphOvercast
8:53 AM27.0 °F23.0 °F85 %29.83 in6.0 miSouth (180°)10.4 mphMostly Cloudy
9:53 AM28.0 °F23.0 °F81 %29.82 in6.0 miSouth (180°)11.5 mphOvercast
10:11 AM28.4 °F23.0 °F80 %29.79 in6.0 miSouth (180°)10.4 mphOvercast
10:53 AM28.9 °F23.0 °F78 %29.82 in6.0 miSouth (180°)11.5 mphHaze
11:26 AM30.2 °F24.8 °F80 %29.79 in7.0 miSSW (200°)9.2 mphMostly Cloudy
11:53 AM30.9 °F24.1 °F76 %29.82 in7.0 miSSW (200°)9.2 mphMostly Cloudy
12:37 PM32.0 °F24.8 °F75 %29.77 in7.0 miSSW (200°)8.1 mphPartly Cloudy
12:53 PM32.0 °F24.1 °F73 %29.79 in7.0 miSouth (190°)9.2 mphClear
1:53 PM35.1 °F26.1 °F70 %29.76 in9.0 miSW (220°)9.2 mphPartly Cloudy
2:53 PM37.0 °F26.1 °F65 %29.74 in9.0 miSW (230°)9.2 mphMostly Cloudy
3:53 PM37.9 °F26.1 °F62 %29.74 in8.0 miWSW (240°)8.1 mphMostly Cloudy
4:53 PM37.9 °F27.0 °F65 %29.74 in8.0 miWest (260°)8.1 mphMostly Cloudy
5:53 PM36.0 °F27.0 °F70 %29.75 in8.0 miWSW (250°)6.9 mphMostly Cloudy
6:53 PM35.1 °F26.1 °F70 %29.76 in9.0 miSouth (190°)3.5 mphMostly Cloudy
7:53 PM33.1 °F25.0 °F72 %29.77 in8.0 miSouth (190°)5.8 mphMostly Cloudy
8:53 PM28.9 °F24.1 °F82 %29.76 in6.0 miSouth (180°)6.9 mphHaze
9:53 PM27.0 °F23.0 °F85 %29.76 in5.0 miSouth (170°)4.6 mphMostly Cloudy
10:53 PM27.0 °F23.0 °F85 %29.76 in5.0 miSouth (180°)6.9 mphOvercast
11:53 PM27.0 °F23.0 °F85 %29.75 in6.0 miSouth (190°)8.1 mphMostly Cloudy
Hourly data recorded from KGRR, located miles away from Lowell, Michigan







STORIES FROM OUR PARTNERS